Coldwater, MI

9:52 PM EST on February 22, 2017 (GMT -0500)
Branch County Memorial

Weather History for KOEB - April, 2013

Change the Weather History Date:

Sunday, April 7, 2013

  Actual Average (KJYM) Record (KJYM)
Temperature  
Mean Temperature 50 °F -  
Max Temperature 59 °F 52 °F 80 °F (1954)
Min Temperature 39 °F 29 °F 3 °F (1982)
Degree Days  
Heating Degree Days 16    
Moisture  
Dew Point 37 °F    
Average Humidity 60    
Maximum Humidity 79    
Minimum Humidity 38    
Precipitation  
Precipitation 0.00 in - - ()
Sea Level Pressure  
Sea Level Pressure 29.84 in    
Wind  
Wind Speed 13 mph (West)    
Max Wind Speed 31 mph    
Max Gust Speed 41 mph    
Visibility 10 miles    
Events Rain    
Averages and records for this station are not official NWS values.
T = Trace of Precipitation, MM = Missing Value Source: NWS Daily Summary

Daily Weather History Graph

Daily Weather History Graph

Search for Another Location

Airport or City:

Trip Planner

Search our weather history database for the weather conditions in past years. The results will help you decide how hot, cold, wet, or windy it might be!

Date:

Astronomy

Apr. 07, 2013 Rise Set
Actual Time 7:12 AM EDT 8:12 PM EDT
Civil Twilight 6:44 AM EDT 8:41 PM EDT
Nautical Twilight 6:10 AM EDT 9:15 PM EDT
Astronomical Twilight 5:34 AM EDT 9:50 PM EDT
Moon 5:32 AM EDT (4/7) 5:42 PM EDT (4/7)
Length of Visible Light 13h 57m
Length of Day
13h 00m
Waning Crescent, 8% of the Moon is Illuminated
Apr 7
Waning Crescent
Apr 10
New
Apr 18
First Quarter
Apr 25
Full
May 2
Last Quarter

Hourly Weather History & Observations

Time (EDT) Temp. Windchill Dew Point Humidity Pressure Visibility Wind Dir Wind Speed Gust Speed Precip Events Conditions
12:14 AM 57.2 °F - 32.0 °F 38% 29.72 in 10.0 mi South 11.5 mph 21.9 mph N/A   Overcast
12:34 AM 57.9 °F - 32.4 °F 38% 29.71 in 10.0 mi South 11.5 mph 18.4 mph N/A   Overcast
12:54 AM 58.8 °F - 33.1 °F 38% 29.71 in 10.0 mi SSW 12.7 mph 25.3 mph N/A   Overcast
1:14 AM 57.6 °F - 37.0 °F 46% 29.70 in 10.0 mi South 12.7 mph 25.3 mph N/A Rain Light Rain
1:34 AM 57.6 °F - 37.6 °F 47% 29.67 in 10.0 mi South 11.5 mph 21.9 mph N/A   Overcast
1:54 AM 58.1 °F - 36.3 °F 44% 29.67 in 10.0 mi South 12.7 mph 18.4 mph N/A   Overcast
2:14 AM 58.5 °F - 35.6 °F 42% 29.66 in 10.0 mi SSW 11.5 mph 18.4 mph N/A   Overcast
2:34 AM 59.0 °F - 35.8 °F 42% 29.67 in 10.0 mi SSW 16.1 mph 23.0 mph N/A   Overcast
2:54 AM 57.6 °F - 41.0 °F 54% 29.68 in 10.0 mi SW 31.1 mph 41.4 mph N/A Rain Light Rain
3:14 AM 53.8 °F - 45.0 °F 72% 29.68 in 10.0 mi SW 23.0 mph 33.4 mph N/A Rain Rain
3:34 AM 52.9 °F - 44.6 °F 73% 29.66 in 10.0 mi SW 16.1 mph 23.0 mph N/A   Mostly Cloudy
3:54 AM 52.9 °F - 44.6 °F 73% 29.65 in 10.0 mi SSW 12.7 mph 20.7 mph N/A   Mostly Cloudy
4:14 AM 52.3 °F - 44.2 °F 74% 29.64 in 10.0 mi SSW 11.5 mph 19.6 mph N/A   Mostly Cloudy
4:34 AM 52.7 °F - 43.5 °F 71% 29.63 in 10.0 mi SSW 16.1 mph 20.7 mph N/A   Scattered Clouds
4:54 AM 53.6 °F - 43.0 °F 67% 29.63 in 10.0 mi SW 18.4 mph 24.2 mph N/A   Clear
5:14 AM 53.8 °F - 42.8 °F 66% 29.64 in 10.0 mi SW 15.0 mph 24.2 mph N/A   Clear
5:34 AM 53.6 °F - 42.8 °F 67% 29.64 in 10.0 mi SW 24.2 mph 31.1 mph N/A   Clear
5:54 AM 52.7 °F - 43.2 °F 70% 29.66 in 10.0 mi WSW 19.6 mph 27.6 mph N/A   Clear
6:14 AM 52.3 °F - 43.5 °F 72% 29.67 in 10.0 mi WSW 18.4 mph 25.3 mph N/A   Clear
6:34 AM 52.2 °F - 44.1 °F 74% 29.68 in 10.0 mi West 17.3 mph 24.2 mph N/A   Scattered Clouds
6:54 AM 52.7 °F - 44.6 °F 74% 29.69 in 10.0 mi WSW 19.6 mph 25.3 mph N/A   Overcast
7:14 AM 52.5 °F - 44.8 °F 75% 29.71 in 10.0 mi WSW 15.0 mph 21.9 mph N/A   Overcast
7:34 AM 52.2 °F - 44.6 °F 75% 29.73 in 10.0 mi West 16.1 mph 23.0 mph N/A   Overcast
7:54 AM 50.0 °F - 43.3 °F 78% 29.75 in 7.0 mi West 17.3 mph 25.3 mph N/A   Overcast
8:14 AM 49.3 °F - 43.0 °F 79% 29.76 in 7.0 mi West 12.7 mph - N/A   Overcast
8:34 AM 49.1 °F - 42.8 °F 79% 29.77 in 7.0 mi West 13.8 mph - N/A   Overcast
8:54 AM 49.1 °F - 41.9 °F 76% 29.78 in 7.0 mi West 18.4 mph - N/A   Overcast
9:14 AM 48.9 °F - 41.9 °F 77% 29.79 in 7.0 mi West 16.1 mph 21.9 mph N/A   Overcast
9:34 AM 48.7 °F - 41.4 °F 76% 29.80 in 7.0 mi WNW 13.8 mph 20.7 mph N/A   Overcast
9:54 AM 46.9 °F - 39.7 °F 76% 29.81 in 7.0 mi WNW 16.1 mph 20.7 mph N/A   Overcast
10:14 AM 45.9 °F 39.4 °F 37.6 °F 73% 29.82 in 10.0 mi WNW 15.0 mph 24.2 mph N/A   Overcast
10:34 AM 45.7 °F 39.1 °F 37.2 °F 72% 29.83 in 10.0 mi WNW 15.0 mph 24.2 mph N/A   Overcast
10:54 AM 45.7 °F 39.1 °F 37.2 °F 72% 29.84 in 10.0 mi WNW 15.0 mph 23.0 mph N/A   Overcast
11:14 AM 46.4 °F 41.5 °F 37.4 °F 71% 29.85 in 10.0 mi WNW 10.4 mph - N/A   Overcast
11:34 AM 46.4 °F 40.1 °F 37.0 °F 70% 29.86 in 10.0 mi West 15.0 mph 20.7 mph N/A   Overcast
11:54 AM 46.6 °F - 36.9 °F 69% 29.88 in 10.0 mi WNW 10.4 mph 18.4 mph N/A   Overcast
12:14 PM 48.4 °F - 37.0 °F 65% 29.88 in 10.0 mi WNW 16.1 mph - N/A   Overcast
12:34 PM 49.1 °F - 36.5 °F 62% 29.89 in 10.0 mi WNW 19.6 mph 25.3 mph N/A   Overcast
12:54 PM 50.4 °F - 35.8 °F 57% 29.89 in 10.0 mi West 20.7 mph 31.1 mph N/A   Overcast
1:14 PM 50.2 °F - 35.2 °F 57% 29.90 in 10.0 mi WNW 16.1 mph 28.8 mph N/A   Overcast
1:34 PM 51.4 °F - 34.9 °F 53% 29.91 in 10.0 mi West 18.4 mph 25.3 mph N/A   Mostly Cloudy
1:54 PM 50.9 °F - 34.5 °F 54% 29.91 in 10.0 mi WNW 12.7 mph 25.3 mph N/A   Scattered Clouds
2:14 PM 52.3 °F - 34.5 °F 51% 29.92 in 10.0 mi WNW 18.4 mph 23.0 mph N/A   Scattered Clouds
2:34 PM 52.5 °F - 33.4 °F 48% 29.92 in 10.0 mi WNW 18.4 mph 23.0 mph N/A   Clear
2:55 PM 53.1 °F - 33.1 °F 47% 29.93 in 10.0 mi West 18.4 mph 24.2 mph N/A   Clear
3:14 PM 53.1 °F - 32.9 °F 46% 29.93 in 10.0 mi West 17.3 mph 24.2 mph N/A   Clear
3:34 PM 53.4 °F - 32.9 °F 46% 29.94 in 10.0 mi West 16.1 mph 21.9 mph N/A   Clear
3:54 PM 54.3 °F - 32.5 °F 44% 29.94 in 10.0 mi WNW 13.8 mph - N/A   Clear
4:14 PM 54.5 °F - 32.5 °F 43% 29.94 in 10.0 mi WNW 12.7 mph 18.4 mph N/A   Clear
4:34 PM 54.5 °F - 32.0 °F 42% 29.95 in 10.0 mi West 12.7 mph - N/A   Clear
4:54 PM 53.8 °F - 32.2 °F 44% 29.95 in 10.0 mi WNW 8.1 mph 16.1 mph N/A   Clear
5:14 PM 53.2 °F - 32.2 °F 45% 29.95 in 10.0 mi WNW 10.4 mph 16.1 mph N/A   Clear
5:34 PM 52.9 °F - 32.0 °F 45% 29.96 in 10.0 mi West 11.5 mph 18.4 mph N/A   Clear
5:54 PM 52.2 °F - 31.8 °F 46% 29.96 in 10.0 mi NW 11.5 mph - N/A   Clear
6:14 PM 52.0 °F - 32.0 °F 47% 29.97 in 10.0 mi WNW 6.9 mph - N/A   Clear
6:34 PM 52.0 °F - 32.0 °F 47% 29.97 in 10.0 mi NW 8.1 mph - N/A   Clear
6:54 PM 51.1 °F - 32.0 °F 48% 29.97 in 10.0 mi WNW 6.9 mph - N/A   Clear
7:14 PM 50.0 °F - 32.0 °F 50% 29.97 in 10.0 mi NW 5.8 mph - N/A   Clear
7:34 PM 49.1 °F - 32.0 °F 52% 29.97 in 10.0 mi NW 3.5 mph - N/A   Clear
7:54 PM 47.8 °F - 32.2 °F 55% 29.97 in 10.0 mi NNW 3.5 mph - N/A   Clear
8:14 PM 47.7 °F - 32.0 °F 55% 29.97 in 10.0 mi Calm Calm - N/A   Clear
8:34 PM 45.5 °F 43.2 °F 32.0 °F 59% 29.97 in 10.0 mi North 4.6 mph - N/A   Clear
8:54 PM 45.7 °F - 32.0 °F 59% 29.97 in 10.0 mi Calm Calm - N/A   Clear
9:14 PM 45.3 °F - 32.0 °F 60% 29.98 in 10.0 mi Calm Calm - N/A   Clear
9:34 PM 44.6 °F 43.1 °F 32.0 °F 61% 29.98 in 10.0 mi NNE 3.5 mph - N/A   Clear
9:54 PM 43.3 °F - 32.9 °F 67% 29.99 in 10.0 mi Calm Calm - N/A   Clear
10:14 PM 43.7 °F 42.1 °F 32.7 °F 65% 29.99 in 10.0 mi NE 3.5 mph - N/A   Clear
10:34 PM 42.8 °F 41.1 °F 32.4 °F 67% 29.99 in 10.0 mi NE 3.5 mph - N/A   Clear
10:54 PM 41.2 °F 39.2 °F 32.0 °F 70% 29.99 in 10.0 mi NNE 3.5 mph - N/A   Clear
11:15 PM 40.1 °F - 32.0 °F 73% 29.99 in 10.0 mi Calm Calm - N/A   Clear
11:34 PM 40.5 °F 38.4 °F 32.0 °F 72% 29.99 in 10.0 mi NE 3.5 mph - N/A   Clear
11:54 PM 39.2 °F 37.0 °F 31.6 °F 74% 29.99 in 10.0 mi East 3.5 mph - N/A   Clear